UPS1016 KSDF-KBOS

Flight info

Callsign UPS1016
Flight time N/A
Altitude 37000
Route EEVAA1 SHIPR SITTR Q34 RBV Q419 JFK ROBUC3
Aircraft B752/M-SDE2E3FGHIJ3J4J7RWXY/LB1

Departure

Time 2026-04-30 22:59
Airport Louisville Muhammad Ali International Airport (KSDF)

Arrival

Time N/A
Airport Boston Logan International Airport (KBOS)
Time Latitude Longitude Altitude Speed Heading
2026-04-30 22:38 38.17149 -85.73882 511 ft 0 kts 20°
2026-04-30 22:47 38.17124 -85.73888 510 ft 2 kts 354°
2026-04-30 22:48 38.17098 -85.73875 510 ft 2 kts 320°
2026-04-30 22:49 38.17078 -85.73834 510 ft 0 kts 290°
2026-04-30 22:49 38.17078 -85.73831 510 ft 0 kts 290°
2026-04-30 22:51 38.17078 -85.73832 510 ft 0 kts 290°
2026-04-30 22:51 38.17107 -85.73926 510 ft 8 kts 291°
2026-04-30 22:52 38.17129 -85.73998 510 ft 8 kts 291°
2026-04-30 22:52 38.17127 -85.74133 510 ft 7 kts 256°
2026-04-30 22:53 38.17063 -85.74176 510 ft 7 kts 168°
2026-04-30 22:53 38.16857 -85.74107 510 ft 18 kts 165°
2026-04-30 22:53 38.16734 -85.74068 510 ft 18 kts 166°
2026-04-30 22:54 38.16507 -85.73994 510 ft 17 kts 165°
2026-04-30 22:55 38.16292 -85.73923 510 ft 16 kts 165°
2026-04-30 22:55 38.16072 -85.73850 510 ft 15 kts 165°
2026-04-30 22:56 38.15890 -85.73792 510 ft 7 kts 177°
2026-04-30 22:56 38.15855 -85.73814 510 ft 0 kts 238°
2026-04-30 22:57 38.15839 -85.73915 510 ft 6 kts 296°
2026-04-30 22:58 38.16083 -85.74014 510 ft 59 kts 345°
2026-04-30 22:59 38.18901 -85.74950 1140 ft 188 kts 347°
2026-04-30 22:59 38.22636 -85.77106 2773 ft 224 kts 331°